Location: Newark
(40.3500°N, 15.2333°E)
Time: 02:17:16
(UTC+00:00)

NOAA 19 - Pass Details

Date: 23 February 2020
Orbit: 842 x 860 km, 99.2° (Epoch: 08 April)

Event Time Altitude Azimuth Distance (km) Brightness Sun altitude
Rises 05:09:22 0° 12° (NNE) 3,420 8.4 -7.1°
Reaches altitude 10° 05:11:44 10° 10° (N) 2,484 7.7 -6.6°
Maximum altitude 05:17:13 74° 287° (WNW) 890 5.2 -5.6°
Drops below altitude 10° 05:22:42 10° 203° (SSW) 2,480 7.5 -4.6°
Sets 05:25:05 0° 202° (SSW) 3,414 8.2 -4.1°
